| time (UTC) | temp C | wind direction | speed KPH | gust KPH | rain 1hr cm | rain 24hr cm | rain mn cm | humidity % | barometer mb |
| 20260507033029 | 1 | 285 | 0.0 | 0.0 | 0.00 | 0.00 | 0.00 | 65 | 1015.8 |
| 20260507031557 | 1 | 285 | 0.0 | 0.0 | 0.00 | 0.00 | 0.00 | 64 | 1015.8 |
| 20260507030031 | 2 | 285 | 0.0 | 0.0 | 0.00 | 0.00 | 0.00 | 63 | 1015.7 |
| 20260507024509 | 2 | 285 | 0.0 | 0.0 | 0.00 | 0.00 | 0.00 | 62 | 1015.7 |
| 20260507023046 | 2 | 285 | 0.0 | 0.0 | 0.00 | 0.00 | 0.00 | 60 | 1015.6 |
| 20260507021523 | 3 | 285 | 0.0 | 0.0 | 0.00 | 0.00 | 0.00 | 58 | 1015.6 |
| 20260507020113 | 3 | 285 | 0.0 | 1.6 | 0.00 | 0.00 | 0.00 | 56 | 1015.5 |
| 20260507014530 | 5 | 279 | 0.0 | 1.6 | 0.00 | 0.00 | 0.00 | 53 | 1015.4 |
| 20260507013014 | 5 | 286 | 0.0 | 4.8 | 0.00 | 0.00 | 0.00 | 51 | 1015.4 |
| 20260507011550 | 6 | 278 | 0.0 | 4.8 | 0.00 | 0.00 | 0.00 | 51 | 1015.4 |
| 20260507010036 | 6 | 284 | 1.6 | 9.7 | 0.00 | 0.00 | 0.00 | 49 | 1015.4 |
| 20260507004506 | 6 | 276 | 1.6 | 11.3 | 0.00 | 0.00 | 0.00 | 49 | 1015.5 |
| 20260507003047 | 6 | 288 | 3.2 | 11.3 | 0.00 | 0.00 | 0.00 | 49 | 1015.6 |
| 20260507001512 | 7 | 288 | 4.8 | 12.9 | 0.00 | 0.00 | 0.00 | 48 | 1015.6 |
| 20260507000050 | 7 | 271 | 6.4 | 11.3 | 0.00 | 0.00 | 0.00 | 47 | 1015.8 |
| 20260506234528 | 7 | 278 | 3.2 | 12.9 | 0.00 | 0.00 | 0.00 | 48 | 1015.8 |
| 20260506233001 | 7 | 277 | 4.8 | 22.5 | 0.00 | 0.00 | 0.00 | 48 | 1016.0 |
| 20260506231532 | 7 | 283 | 3.2 | 17.7 | 0.00 | 0.00 | 0.00 | 46 | 1016.1 |
| 20260506230009 | 7 | 257 | 3.2 | 12.9 | 0.00 | 0.00 | 0.00 | 46 | 1016.0 |
| 20260506224541 | 7 | 315 | 6.4 | 17.7 | 0.00 | 0.00 | 0.00 | 47 | 1016.1 |
| 20260506223027 | 7 | 283 | 6.4 | 19.3 | 0.00 | 0.00 | 0.00 | 46 | 1016.4 |
| 20260506221611 | 8 | 293 | 3.2 | 17.7 | 0.00 | 0.00 | 0.00 | 47 | 1016.4 |
| 20260506220028 | 7 | 308 | 6.4 | 17.7 | 0.00 | 0.00 | 0.00 | 48 | 1016.4 |
| 20260506214509 | 7 | 268 | 8.0 | 20.9 | 0.00 | 0.00 | 0.00 | 46 | 1016.6 |
| 20260506213057 | 7 | 309 | 3.2 | 17.7 | 0.00 | 0.00 | 0.00 | 49 | 1016.7 |
| 20260506211513 | 7 | 283 | 4.8 | 14.5 | 0.00 | 0.00 | 0.00 | 49 | 1016.9 |
| 20260506210048 | 7 | 250 | 8.0 | 22.5 | 0.00 | 0.00 | 0.00 | 48 | 1017.0 |
| 20260506204529 | 7 | 278 | 3.2 | 17.7 | 0.00 | 0.00 | 0.00 | 48 | 1017.2 |
| 20260506203100 | 7 | 275 | 6.4 | 19.3 | 0.00 | 0.00 | 0.00 | 49 | 1017.4 |
| 20260506201532 | 7 | 260 | 6.4 | 20.9 | 0.00 | 0.00 | 0.00 | 50 | 1017.6 |
| 20260506200007 | 7 | 295 | 4.8 | 20.9 | 0.00 | 0.00 | 0.00 | 51 | 1017.5 |
| 20260506194535 | 6 | 274 | 4.8 | 16.1 | 0.00 | 0.00 | 0.00 | 51 | 1017.7 |
| 20260506193010 | 6 | 302 | 6.4 | 16.1 | 0.00 | 0.00 | 0.00 | 51 | 1017.6 |
| 20260506191543 | 6 | 286 | 8.0 | 16.1 | 0.00 | 0.00 | 0.00 | 51 | 1017.7 |
| 20260506190023 | 6 | 281 | 8.0 | 17.7 | 0.00 | 0.00 | 0.00 | 50 | 1017.7 |
| 20260506184556 | 6 | 296 | 1.6 | 16.1 | 0.00 | 0.00 | 0.00 | 51 | 1017.7 |
| 20260506183036 | 6 | 266 | 3.2 | 16.1 | 0.00 | 0.00 | 0.00 | 51 | 1017.7 |
| 20260506181507 | 5 | 280 | 8.0 | 19.3 | 0.00 | 0.00 | 0.00 | 51 | 1017.8 |
| 20260506180036 | 5 | 290 | 8.0 | 20.9 | 0.00 | 0.00 | 0.00 | 52 | 1017.8 |
| 20260506174510 | 5 | 272 | 6.4 | 20.9 | 0.00 | 0.00 | 0.00 | 52 | 1018.0 |
| 20260506173056 | 5 | 264 | 8.0 | 19.3 | 0.00 | 0.00 | 0.00 | 53 | 1018.3 |
| 20260506171512 | 5 | 286 | 4.8 | 19.3 | 0.00 | 0.00 | 0.00 | 53 | 1018.4 |
| 20260506170056 | 4 | 283 | 6.4 | 22.5 | 0.00 | 0.00 | 0.00 | 53 | 1018.4 |
| 20260506164531 | 4 | 308 | 8.0 | 17.7 | 0.00 | 0.00 | 0.00 | 53 | 1018.4 |
| 20260506163052 | 4 | 322 | 4.8 | 19.3 | 0.00 | 0.00 | 0.00 | 56 | 1018.5 |
| 20260506161518 | 3 | 285 | 3.2 | 16.1 | 0.00 | 0.00 | 0.00 | 57 | 1018.6 |
| 20260506160053 | 3 | 303 | 8.0 | 12.9 | 0.00 | 0.00 | 0.00 | 56 | 1018.5 |
| 20260506154516 | 3 | 233 | 4.8 | 11.3 | 0.00 | 0.00 | 0.00 | 59 | 1018.5 |
| 20260506153106 | 3 | 269 | 4.8 | 11.3 | 0.00 | 0.00 | 0.00 | 60 | 1018.3 |
| 20260506151522 | 3 | 286 | 4.8 | 9.7 | 0.00 | 0.00 | 0.00 | 62 | 1018.3 |
| 20260506150059 | 2 | 284 | 3.2 | 12.9 | 0.00 | 0.00 | 0.00 | 62 | 1018.4 |
| 20260506144523 | 2 | 282 | 3.2 | 14.5 | 0.00 | 0.00 | 0.00 | 65 | 1018.4 |
| 20260506143052 | 2 | 269 | 0.0 | 9.7 | 0.00 | 0.00 | 0.00 | 66 | 1018.3 |
| 20260506141520 | 2 | 259 | 1.6 | 11.3 | 0.00 | 0.00 | 0.00 | 66 | 1018.2 |
| 20260506140054 | 2 | 278 | 1.6 | 11.3 | 0.00 | 0.00 | 0.00 | 66 | 1018.3 |
| 20260506134534 | 2 | 274 | 1.6 | 9.7 | 0.00 | 0.00 | 0.00 | 66 | 1018.2 |
| 20260506133006 | 2 | 279 | 3.2 | 9.7 | 0.00 | 0.00 | 0.00 | 67 | 1018.1 |
| 20260506131540 | 2 | 280 | 1.6 | 6.4 | 0.00 | 0.00 | 0.00 | 69 | 1017.9 |
| 20260506130016 | 2 | 281 | 0.0 | 6.4 | 0.00 | 0.00 | 0.00 | 70 | 1017.8 |
| 20260506124547 | 1 | 280 | 0.0 | 3.2 | 0.00 | 0.00 | 0.00 | 71 | 1017.7 |
| 20260506123021 | 1 | 267 | 0.0 | 1.6 | 0.00 | 0.00 | 0.00 | 71 | 1017.4 |
| 20260506121555 | 1 | 280 | 1.6 | 4.8 | 0.00 | 0.00 | 0.00 | 71 | 1017.3 |
| 20260506120027 | 1 | 276 | 1.6 | 4.8 | 0.00 | 0.00 | 0.00 | 72 | 1017.2 |
| 20260506114612 | 1 | 255 | 0.0 | 1.6 | 0.00 | 0.00 | 0.00 | 72 | 1016.9 |
| 20260506113042 | 1 | 255 | 0.0 | 1.6 | 0.00 | 0.00 | 0.00 | 71 | 1016.6 |
| 20260506111516 | 1 | 255 | 0.0 | 4.8 | 0.00 | 0.00 | 0.00 | 71 | 1016.6 |
| 20260506110051 | 1 | 268 | 0.0 | 3.2 | 0.00 | 0.00 | 0.00 | 71 | 1016.4 |
| 20260506104533 | 1 | 269 | 0.0 | 8.0 | 0.00 | 0.00 | 0.00 | 71 | 1016.4 |
| 20260506103013 | 1 | 270 | 0.0 | 3.2 | 0.00 | 0.00 | 0.00 | 71 | 1016.4 |
| 20260506101544 | 1 | 264 | 0.0 | 3.2 | 0.00 | 0.00 | 0.00 | 71 | 1016.5 |
| 20260506100020 | 1 | 264 | 0.0 | 1.6 | 0.00 | 0.00 | 0.00 | 71 | 1016.4 |
| 20260506094552 | 1 | 266 | 0.0 | 4.8 | 0.00 | 0.00 | 0.00 | 71 | 1016.2 |
| 20260506093026 | 1 | 261 | 0.0 | 6.4 | 0.00 | 0.00 | 0.00 | 71 | 1016.2 |
| 20260506091602 | 1 | 259 | 0.0 | 6.4 | 0.00 | 0.00 | 0.00 | 70 | 1016.0 |
| 20260506090033 | 1 | 258 | 0.0 | 3.2 | 0.00 | 0.00 | 0.00 | 70 | 1016.0 |
| 20260506084515 | 1 | 257 | 0.0 | 3.2 | 0.00 | 0.00 | 0.00 | 69 | 1015.9 |
| 20260506083049 | 1 | 240 | 0.0 | 4.8 | 0.00 | 0.00 | 0.00 | 69 | 1015.8 |
| 20260506081520 | 1 | 268 | 1.6 | 4.8 | 0.00 | 0.00 | 0.00 | 68 | 1015.8 |
| 20260506080103 | 1 | 269 | 1.6 | 8.0 | 0.00 | 0.00 | 0.00 | 68 | 1015.6 |
| 20260506073100 | 1 | 270 | 0.0 | 3.2 | 0.00 | 0.00 | 0.00 | 67 | 1015.7 |
| 20260506071542 | 1 | 261 | 0.0 | 4.8 | 0.00 | 0.00 | 0.00 | 67 | 1015.9 |
| 20260506061509 | 1 | 267 | 1.6 | 6.4 | 0.00 | 0.00 | 0.00 | 64 | 1015.7 |
| 20260506044523 | 1 | 260 | 1.6 | 8.0 | 0.00 | 0.00 | 0.00 | 62 | 1015.4 |
| 20260506043101 | 1 | 289 | 1.6 | 6.4 | 0.00 | 0.00 | 0.00 | 63 | 1015.4 |
| 20260506041532 | 1 | 288 | 0.0 | 3.2 | 0.00 | 0.00 | 0.00 | 63 | 1015.2 |
| 20260506040023 | 1 | 282 | 0.0 | 4.8 | 0.00 | 0.00 | 0.00 | 61 | 1015.1 |
| 20260506034610 | 2 | 276 | 0.0 | 8.0 | 0.00 | 0.00 | 0.00 | 60 | 1015.1 |